GW3407 Weather Reports


Display with metric or nautical units.
time (UTC)temp
F
wind
direction
speed
MPH
gust
MPH
rain 1hr
in
rain 24hr
in
rain mn
in
humidity
%
barometer
mb
20260508101905 34 140 1.0 3.0 0.00 0.00 0.00 99 1014.8
20260508101402 33 172 2.0 3.0 0.00 0.00 0.00 99 1014.9
20260508100859 33 243 0.0 2.0 0.00 0.00 0.00 99 1014.9
20260508100358 34 254 0.0 3.0 0.00 0.00 0.00 99 1014.7
20260508095853 34 123 1.0 2.0 0.00 0.00 0.00 99 1014.7
20260508095352 34 135 3.0 3.0 0.00 0.00 0.00 99 1014.4
20260508094848 34 163 2.0 2.0 0.00 0.00 0.00 99 1014.7
20260508094345 34 141 4.0 4.0 0.00 0.00 0.00 99 1014.6
20260508093842 34 145 1.0 4.0 0.00 0.00 0.00 99 1014.7
20260508093339 34 156 2.0 3.0 0.00 0.00 0.00 99 1014.5
20260508092837 34 185 1.0 3.0 0.00 0.00 0.00 99 1014.6
20260508092335 34 162 0.0 3.0 0.00 0.00 0.00 99 1014.6
20260508091833 34 123 1.0 2.0 0.00 0.00 0.00 99 1014.9
20260508091329 34 208 0.0 2.0 0.00 0.00 0.00 99 1014.7
20260508090827 34 113 2.0 3.0 0.00 0.00 0.00 99 1014.4
20260508090325 34 175 1.0 2.0 0.00 0.00 0.00 99 1014.7
20260508085820 34 90 1.0 2.0 0.00 0.00 0.00 99 1014.5
20260508085318 34 212 1.0 2.0 0.00 0.00 0.00 99 1014.4
20260508084814 34 148 0.0 2.0 0.00 0.00 0.00 99 1014.4
20260508084311 34 109 0.0 2.0 0.00 0.00 0.00 99 1014.3
20260508083809 35 157 1.0 3.0 0.00 0.00 0.00 99 1014.4
20260508083306 35 187 1.0 3.0 0.00 0.00 0.00 99 1014.4
20260508082805 35 117 1.0 3.0 0.00 0.00 0.00 99 1014.4
20260508082306 35 202 0.0 2.0 0.00 0.00 0.00 99 1014.2
20260508081801 35 195 0.0 2.0 0.00 0.00 0.00 99 1014.4
20260508081257 35 154 2.0 3.0 0.00 0.00 0.00 99 1014.4
20260508080754 35 124 0.0 3.0 0.00 0.00 0.00 99 1014.3
20260508080252 35 188 0.0 3.0 0.00 0.00 0.00 99 1014.3
20260508075748 35 175 1.0 3.0 0.00 0.00 0.00 99 1014.4
20260508075245 35 159 0.0 3.0 0.00 0.00 0.00 99 1014.4
20260508074743 35 249 1.0 2.0 0.00 0.00 0.00 99 1014.4
20260508074240 35 168 0.0 3.0 0.00 0.00 0.00 99 1014.1
20260508073737 35 123 0.0 2.0 0.00 0.00 0.00 99 1014.4
20260508073235 35 151 0.0 3.0 0.00 0.00 0.00 99 1014.4
20260508072731 35 165 2.0 3.0 0.00 0.00 0.00 99 1014.3
20260508072228 35 156 0.0 3.0 0.00 0.00 0.00 99 1014.4
20260508071726 35 194 0.0 3.0 0.00 0.00 0.00 99 1014.1
20260508071224 35 144 2.0 2.0 0.00 0.00 0.00 99 1014.3
20260508070721 36 150 2.0 2.0 0.00 0.00 0.00 99 1014.2
20260508070219 36 180 0.0 3.0 0.00 0.00 0.00 99 1014.1
20260508065716 36 265 0.0 2.0 0.00 0.00 0.00 99 1014.4
20260508065214 36 246 0.0 3.0 0.00 0.00 0.00 99 1014.4
20260508064711 36 212 1.0 2.0 0.00 0.00 0.00 99 1014.4
20260508064209 36 90 0.0 2.0 0.00 0.00 0.00 99 1014.6
20260508063707 37 144 2.0 3.0 0.00 0.00 0.00 99 1014.6
20260508063204 37 161 3.0 3.0 0.00 0.00 0.00 99 1014.6
20260508062701 37 150 0.0 3.0 0.00 0.00 0.00 99 1014.6
20260508062158 37 108 2.0 3.0 0.00 0.00 0.00 98 1014.6
20260508061655 37 216 0.0 3.0 0.00 0.00 0.00 99 1014.6
20260508061153 37 243 2.0 4.0 0.00 0.00 0.00 98 1014.3
20260508060649 37 210 2.0 3.0 0.00 0.00 0.00 98 1014.4
20260508060147 37 175 2.0 2.0 0.00 0.00 0.00 98 1014.5
20260508055642 37 157 0.0 3.0 0.00 0.00 0.00 98 1014.3
20260508055139 37 200 1.0 3.0 0.00 0.00 0.00 98 1014.3
20260508054636 37 162 0.0 3.0 0.00 0.00 0.00 98 1014.3
20260508054134 37 165 2.0 4.0 0.00 0.00 0.00 98 1014.4
20260508053630 37 148 1.0 2.0 0.00 0.00 0.00 97 1014.4
20260508053128 37 265 2.0 3.0 0.00 0.00 0.00 97 1014.4
20260508052625 38 140 1.0 2.0 0.00 0.00 0.00 97 1014.7
20260508052122 38 165 2.0 3.0 0.00 0.00 0.00 97 1014.6
20260508051618 38 239 2.0 3.0 0.00 0.00 0.00 97 1014.7
20260508051113 38 188 2.0 3.0 0.00 0.00 0.00 97 1014.9
20260508050610 38 151 0.0 3.0 0.00 0.00 0.00 97 1014.7
20260508050108 38 139 2.0 2.0 0.00 0.00 0.00 96 1014.7
20260508045604 38 154 2.0 2.0 0.00 0.00 0.00 96 1014.8
20260508045102 39 151 0.0 3.0 0.00 0.00 0.00 96 1014.6
20260508044559 39 166 0.0 3.0 0.00 0.00 0.00 96 1014.6
20260508044055 39 180 0.0 2.0 0.00 0.00 0.00 96 1014.6
20260508043551 39 192 1.0 2.0 0.00 0.00 0.00 95 1014.6
20260508043049 39 194 0.0 2.0 0.00 0.00 0.00 95 1014.6
20260508042545 39 191 0.0 3.0 0.00 0.00 0.00 94 1014.5
20260508042043 39 164 2.0 3.0 0.00 0.00 0.00 94 1014.4
20260508041539 39 200 0.0 2.0 0.00 0.00 0.00 93 1014.6
20260508041035 40 165 0.0 2.0 0.00 0.00 0.00 93 1014.4
20260508040532 40 127 2.0 2.0 0.00 0.00 0.00 93 1014.6
20260508040030 41 180 0.0 3.0 0.00 0.00 0.00 92 1014.6
20260508035527 41 202 0.0 3.0 0.00 0.00 0.00 92 1014.6
20260508035024 41 195 0.0 3.0 0.00 0.00 0.00 92 1014.7
20260508034521 41 160 1.0 3.0 0.00 0.00 0.00 91 1014.5
20260508034018 41 119 0.0 3.0 0.00 0.00 0.00 91 1014.5
20260508033516 41 127 2.0 2.0 0.00 0.00 0.00 90 1014.5
20260508033014 41 145 0.0 3.0 0.00 0.00 0.00 91 1014.4
20260508032510 41 133 3.0 3.0 0.00 0.00 0.00 91 1014.5
20260508032008 41 139 2.0 3.0 0.00 0.00 0.00 90 1014.4
20260508031505 41 126 1.0 4.0 0.00 0.00 0.00 90 1014.6
20260508030959 42 146 2.0 4.0 0.00 0.00 0.00 89 1014.4
20260508030457 42 160 0.0 2.0 0.00 0.00 0.00 90 1014.5
20260508025955 42 183 2.0 3.0 0.00 0.00 0.00 89 1014.4
20260508025451 42 180 0.0 3.0 0.00 0.00 0.00 90 1014.6
20260508024948 42 150 2.0 2.0 0.00 0.00 0.00 90 1014.3
20260508024444 42 98 0.0 3.0 0.00 0.00 0.00 89 1014.3
20260508023941 42 184 2.0 2.0 0.00 0.00 0.00 89 1014.2
20260508023438 43 83 1.0 3.0 0.00 0.00 0.00 89 1014.2
20260508022935 42 74 0.0 2.0 0.00 0.00 0.00 87 1014.4
20260508022430 43 131 0.0 2.0 0.00 0.00 0.00 87 1014.1
20260508021927 43 148 0.0 2.0 0.00 0.00 0.00 86 1014.0
20260508021424 44 209 0.0 2.0 0.00 0.00 0.00 86 1014.1
20260508020919 44 221 2.0 3.0 0.00 0.00 0.00 86 1014.1
20260508020418 44 200 1.0 3.0 0.00 0.00 0.00 86 1014.1
20260508015914 44 168 1.0 2.0 0.00 0.00 0.00 84 1013.8
20260508015412 44 63 0.0 3.0 0.00 0.00 0.00 84 1013.8
20260508014908 45 180 0.0 2.0 0.00 0.00 0.00 84 1013.7
20260508014406 45 117 0.0 2.0 0.00 0.00 0.00 82 1013.6
20260508013902 45 180 0.0 2.0 0.00 0.00 0.00 82 1013.6
20260508013357 46 114 1.0 2.0 0.00 0.00 0.00 81 1013.7
20260508012855 46 265 0.0 3.0 0.00 0.00 0.00 79 1013.5
20260508012352 47 157 0.0 2.0 0.00 0.00 0.00 78 1013.5
20260508011850 47 255 1.0 2.0 0.00 0.00 0.00 77 1013.4
20260508011348 48 331 1.0 3.0 0.00 0.00 0.00 75 1013.2
20260508010844 48 201 0.0 2.0 0.00 0.00 0.00 74 1013.1
20260508010342 49 254 0.0 2.0 0.00 0.00 0.00 72 1012.9
20260508005839 49 277 1.0 1.0 0.00 0.00 0.00 72 1012.9
20260508005335 49 172 0.0 2.0 0.00 0.00 0.00 70 1013.0
20260508004831 49 188 0.0 2.0 0.00 0.00 0.00 72 1013.0
20260508004328 50 23 0.0 2.0 0.00 0.00 0.00 70 1012.9
20260508003824 51 8 0.0 1.0 0.00 0.00 0.00 68 1012.8
20260508003322 52 258 0.0 3.0 0.00 0.00 0.00 64 1012.7
20260508002819 53 246 2.0 3.0 0.00 0.00 0.00 59 1012.6
20260508002315 55 240 0.0 3.0 0.00 0.00 0.00 54 1012.5
20260508001811 55 250 0.0 3.0 0.00 0.00 0.00 55 1012.7
20260508001308 55 276 2.0 3.0 0.00 0.00 0.00 53 1012.6
20260508000804 56 264 2.0 3.0 0.00 0.00 0.00 51 1012.6
20260508000301 57 322 2.0 5.0 0.00 0.00 0.00 46 1012.5
20260507235757 58 263 4.0 6.0 0.00 0.00 0.00 47 1012.4
20260507235255 58 275 2.0 2.0 0.00 0.00 0.00 46 1012.6
20260507234751 59 255 2.0 7.0 0.00 0.00 0.00 44 1012.5
20260507234248 59 304 4.0 5.0 0.00 0.00 0.00 42 1012.3
20260507233744 59 270 3.0 7.0 0.00 0.00 0.00 44 1012.1
20260507233242 59 16 0.0 3.0 0.00 0.00 0.00 46 1012.0
20260507232740 60 71 0.0 2.0 0.00 0.00 0.00 49 1012.2
20260507232236 60 292 2.0 4.0 0.00 0.00 0.00 43 1012.1
20260507231733 60 286 2.0 4.0 0.00 0.00 0.00 45 1012.2
20260507231230 61 300 3.0 6.0 0.00 0.00 0.00 39 1012.4
20260507230726 61 297 3.0 6.0 0.00 0.00 0.00 42 1012.1
20260507230224 62 319 3.0 7.0 0.00 0.00 0.00 43 1012.1
20260507225723 63 277 0.0 3.0 0.00 0.00 0.00 38 1011.9
20260507225220 62 276 1.0 3.0 0.00 0.00 0.00 44 1012.0
20260507224716 61 90 2.0 5.0 0.00 0.00 0.00 44 1011.9
20260507224213 62 8 0.0 9.0 0.00 0.00 0.00 41 1011.8
20260507223709 62 268 6.0 11.0 0.00 0.00 0.00 41 1011.8
20260507223206 62 266 3.0 8.0 0.00 0.00 0.00 38 1011.9
20260507222703 62 281 3.0 7.0 0.00 0.00 0.00 40 1012.0
20260507222159 63 337 3.0 5.0 0.00 0.00 0.00 44 1011.8
20260507221656 63 325 1.0 9.0 0.00 0.00 0.00 41 1011.7
20260507221152 62 303 4.0 5.0 0.00 0.00 0.00 41 1011.5
20260507220649 63 335 0.0 5.0 0.00 0.00 0.00 43 1011.6
20260507220147 63 335 3.0 6.0 0.00 0.00 0.00 42 1011.5
20260507215643 63 279 3.0 7.0 0.00 0.00 0.00 45 1011.5
20260507215140 62 303 3.0 5.0 0.00 0.00 0.00 45 1011.5
20260507214637 64 287 2.0 5.0 0.00 0.00 0.00 42 1011.4
20260507214134 64 270 4.0 7.0 0.00 0.00 0.00 47 1011.3
20260507213630 66 283 2.0 4.0 0.00 0.00 0.00 44 1011.3
20260507213127 64 293 2.0 5.0 0.00 0.00 0.00 42 1011.3
20260507212623 63 254 2.0 7.0 0.00 0.00 0.00 43 1011.3
20260507212120 63 340 1.0 3.0 0.00 0.00 0.00 46 1011.4
20260507211617 66 345 0.0 3.0 0.00 0.00 0.00 42 1011.0
20260507211113 66 202 4.0 6.0 0.00 0.00 0.00 43 1010.9
20260507210611 65 305 0.0 9.0 0.00 0.00 0.00 45 1011.0
20260507210107 67 79 5.0 8.0 0.00 0.00 0.00 46 1011.0
20260507205603 67 280 3.0 6.0 0.00 0.00 0.00 42 1011.1
20260507205100 64 249 3.0 4.0 0.00 0.00 0.00 46 1011.0
20260507204556 64 309 2.0 4.0 0.00 0.00 0.00 49 1011.0
20260507204054 66 346 1.0 4.0 0.00 0.00 0.00 47 1010.9
20260507203552 65 264 2.0 4.0 0.00 0.00 0.00 45 1011.0
20260507203049 65 278 5.0 8.0 0.00 0.00 0.00 47 1010.8
20260507202544 65 270 4.0 7.0 0.00 0.00 0.00 43 1011.0
20260507202041 66 357 3.0 3.0 0.00 0.00 0.00 46 1010.7
20260507201536 63 286 2.0 5.0 0.00 0.00 0.00 45 1010.9
20260507201033 64 279 3.0 8.0 0.00 0.00 0.00 41 1011.1
20260507200529 64 287 0.0 11.0 0.00 0.00 0.00 44 1010.8
20260507200025 63 276 1.0 5.0 0.00 0.00 0.00 43 1011.1
20260507195522 65 22 2.0 7.0 0.00 0.00 0.00 44 1011.2
20260507195020 64 139 2.0 5.0 0.00 0.00 0.00 45 1011.1
20260507194516 66 259 4.0 6.0 0.00 0.00 0.00 41 1011.0
20260507194012 67 20 3.0 6.0 0.00 0.00 0.00 54 1011.3
20260507193509 66 262 6.0 7.0 0.00 0.00 0.00 43 1011.3
20260507193006 65 308 3.0 6.0 0.00 0.00 0.00 44 1011.1
20260507192502 66 323 4.0 5.0 0.00 0.00 0.00 47 1011.2
20260507191959 64 35 1.0 3.0 0.00 0.00 0.00 51 1011.4
20260507191454 64 222 0.0 5.0 0.00 0.00 0.00 45 1011.6
20260507190952 65 288 3.0 6.0 0.00 0.00 0.00 42 1011.6
20260507190449 64 281 0.0 13.0 0.00 0.00 0.00 45 1011.4
20260507185948 63 259 4.0 17.0 0.00 0.00 0.00 42 1011.7
20260507185445 65 260 0.0 6.0 0.00 0.00 0.00 49 1011.6
20260507184942 64 289 3.0 14.0 0.00 0.00 0.00 45 1011.7
20260507184440 62 294 9.0 9.0 0.00 0.00 0.00 42 1011.7
20260507183938 65 261 6.0 12.0 0.00 0.00 0.00 43 1011.7
20260507183434 67 177 3.0 3.0 0.00 0.00 0.00 45 1011.9
20260507182931 66 325 5.0 5.0 0.00 0.00 0.00 47 1011.7
20260507182427 63 270 0.0 7.0 0.00 0.00 0.00 50 1011.8
20260507181923 63 258 2.0 10.0 0.00 0.00 0.00 46 1011.7
20260507181419 65 239 7.0 7.0 0.00 0.00 0.00 54 1011.5
20260507180916 62 319 2.0 4.0 0.00 0.00 0.00 48 1011.7
20260507180413 61 270 4.0 8.0 0.00 0.00 0.00 54 1011.8
20260507175909 64 236 4.0 6.0 0.00 0.00 0.00 54 1011.8
20260507175406 62 248 2.0 6.0 0.00 0.00 0.00 49 1011.6
20260507174903 64 266 6.0 11.0 0.00 0.00 0.00 50 1011.9
20260507174401 62 297 0.0 7.0 0.00 0.00 0.00 50 1011.9
20260507173858 61 303 4.0 5.0 0.00 0.00 0.00 52 1011.8
20260507173355 61 279 0.0 14.0 0.00 0.00 0.00 52 1011.9
20260507172851 63 292 2.0 3.0 0.00 0.00 0.00 49 1011.8
20260507172348 63 248 11.0 15.0 0.00 0.00 0.00 54 1012.0
20260507171844 62 154 1.0 8.0 0.00 0.00 0.00 56 1012.1
20260507171341 62 254 1.0 9.0 0.00 0.00 0.00 58 1012.2
20260507170838 61 254 3.0 8.0 0.00 0.00 0.00 52 1012.5
20260507170334 60 238 4.0 7.0 0.00 0.00 0.00 55 1012.3
20260507165830 61 295 4.0 6.0 0.00 0.00 0.00 57 1012.2
20260507165326 62 272 5.0 5.0 0.00 0.00 0.00 54 1012.5
20260507164822 63 337 2.0 4.0 0.00 0.00 0.00 53 1012.4
20260507164320 63 243 1.0 2.0 0.00 0.00 0.00 62 1012.6
20260507163817 59 285 1.0 4.0 0.00 0.00 0.00 57 1012.5
20260507163315 59 279 0.0 4.0 0.00 0.00 0.00 59 1012.7
20260507162810 61 280 7.0 8.0 0.00 0.00 0.00 56 1012.6
20260507162307 60 308 4.0 4.0 0.00 0.00 0.00 62 1012.6
20260507161804 60 355 2.0 4.0 0.00 0.00 0.00 55 1012.7
20260507161300 60 90 3.0 4.0 0.00 0.00 0.00 54 1012.6
20260507160756 63 200 1.0 3.0 0.00 0.00 0.00 53 1012.8
20260507160252 59 281 4.0 13.0 0.00 0.00 0.00 58 1012.7
20260507155748 60 247 8.0 11.0 0.00 0.00 0.00 53 1012.8
20260507155245 59 261 2.0 2.0 0.00 0.00 0.00 57 1012.8
20260507154741 60 304 0.0 5.0 0.00 0.00 0.00 62 1012.8
20260507154239 64 342 0.0 2.0 0.00 0.00 0.00 56 1012.8
20260507153735 65 0 0.0 2.0 0.00 0.00 0.00 59 1012.6
20260507153232 62 240 0.0 5.0 0.00 0.00 0.00 62 1012.9
20260507152728 60 6 1.0 6.0 0.00 0.00 0.00 61 1012.9
20260507152225 61 334 0.0 7.0 0.00 0.00 0.00 57 1012.8
20260507151721 59 258 4.0 6.0 0.00 0.00 0.00 59 1012.8
20260507151218 60 90 3.0 5.0 0.00 0.00 0.00 58 1012.9
20260507150715 59 270 1.0 3.0 0.00 0.00 0.00 58 1013.2
20260507150211 60 280 2.0 5.0 0.00 0.00 0.00 60 1013.2
20260507145707 59 7 0.0 3.0 0.00 0.00 0.00 64 1012.9
20260507145204 59 279 2.0 4.0 0.00 0.00 0.00 58 1013.2
20260507144701 60 139 2.0 5.0 0.00 0.00 0.00 55 1013.0
20260507144159 60 343 2.0 3.0 0.00 0.00 0.00 58 1013.0
20260507143655 61 0 2.0 3.0 0.00 0.00 0.00 62 1013.0
20260507143152 60 46 4.0 7.0 0.00 0.00 0.00 56 1013.1
20260507142648 60 312 0.0 2.0 0.00 0.00 0.00 61 1013.1
20260507142144 60 8 0.0 5.0 0.00 0.00 0.00 60 1013.2
20260507141641 59 97 1.0 6.0 0.00 0.00 0.00 59 1013.6
20260507141138 59 315 0.0 4.0 0.00 0.00 0.00 62 1013.5
20260507140634 59 45 4.0 4.0 0.00 0.00 0.00 60 1013.2
20260507140132 59 261 3.0 6.0 0.00 0.00 0.00 58 1013.5
20260507135629 59 75 5.0 7.0 0.00 0.00 0.00 60 1013.6
20260507135126 59 209 0.0 3.0 0.00 0.00 0.00 62 1013.5
20260507134622 59 313 3.0 5.0 0.00 0.00 0.00 63 1013.7
20260507134119 60 21 2.0 4.0 0.00 0.00 0.00 65 1013.9
20260507133614 59 270 0.0 3.0 0.00 0.00 0.00 65 1013.7
20260507133112 58 270 0.0 4.0 0.00 0.00 0.00 65 1013.9
20260507132609 58 99 2.0 4.0 0.00 0.00 0.00 68 1013.9
20260507132105 59 270 0.0 2.0 0.00 0.00 0.00 67 1014.0
20260507131602 59 85 0.0 3.0 0.00 0.00 0.00 64 1013.9
20260507131100 59 106 2.0 3.0 0.00 0.00 0.00 68 1013.8
20260507130556 59 90 1.0 3.0 0.00 0.00 0.00 71 1014.0
20260507130054 59 114 0.0 2.0 0.00 0.00 0.00 74 1014.0
20260507125553 58 162 1.0 2.0 0.00 0.00 0.00 76 1013.9
20260507125050 58 209 0.0 2.0 0.00 0.00 0.00 76 1013.9
20260507124546 57 180 0.0 2.0 0.00 0.00 0.00 79 1013.8
20260507124044 57 294 0.0 2.0 0.00 0.00 0.00 77 1013.7
20260507123542 57 99 0.0 3.0 0.00 0.00 0.00 81 1013.9
20260507123038 55 300 0.0 2.0 0.00 0.00 0.00 84 1013.8
20260507122534 53 90 0.0 3.0 0.00 0.00 0.00 85 1013.8
20260507122030 52 69 0.0 3.0 0.00 0.00 0.00 87 1013.9
20260507121526 52 77 2.0 3.0 0.00 0.00 0.00 92 1013.9
20260507121021 50 170 2.0 2.0 0.00 0.00 0.00 96 1014.1
20260507120518 49 90 1.0 3.0 0.00 0.00 0.00 98 1013.9
20260507120015 48 69 1.0 3.0 0.00 0.00 0.00 99 1014.1
20260507115511 46 194 0.0 2.0 0.00 0.00 0.00 99 1014.0
20260507115007 46 270 0.0 3.0 0.00 0.00 0.00 99 1014.1
20260507114503 46 55 3.0 3.0 0.00 0.00 0.00 99 1013.9
20260507114001 46 164 0.0 2.0 0.00 0.00 0.00 99 1013.9
20260507113458 45 262 0.0 1.0 0.00 0.00 0.00 99 1013.9
20260507112955 44 160 0.0 2.0 0.00 0.00 0.00 99 1013.9
20260507112452 44 180 0.0 1.0 0.00 0.00 0.00 99 1013.7
20260507111949 44 90 1.0 2.0 0.00 0.00 0.00 99 1013.5
20260507111446 44 200 0.0 2.0 0.00 0.00 0.00 99 1013.5
20260507110942 43 135 0.0 2.0 0.00 0.00 0.00 99 1013.6
20260507110439 43 117 0.0 2.0 0.00 0.00 0.00 99 1013.4
20260507105935 43 198 0.0 1.0 0.00 0.00 0.00 99 1013.4
20260507105432 42 140 0.0 2.0 0.00 0.00 0.00 99 1013.5
20260507104929 43 217 2.0 2.0 0.00 0.00 0.00 99 1013.1
20260507104426 43 162 2.0 2.0 0.00 0.00 0.00 99 1012.9
20260507103926 42 74 0.0 1.0 0.00 0.00 0.00 99 1013.2
20260507103424 42 254 0.0 2.0 0.00 0.00 0.00 99 1012.9
20260507102919 42 180 0.0 2.0 0.00 0.00 0.00 99 1013.1
20260507102416 43 97 1.0 1.0 0.00 0.00 0.00 99 1013.2